User: anonymous   Login
Location: Unspecified
(0.0000°N, 0.0000°E)
Time: 13:26:41
(UTC+00:00)
Language:

USA 97 - Orbit

View from above orbital plane
View from above orbital plane
View from above satellite
View from above satellite

Ground track
Ground track

The orbit data is extracted from the following two-line orbital elements,

1 22915U 93074A   21015.62602431 -.00000022  00000-0  00000+0 0  9999
2 22915  11.9781  28.4973 0010885 332.3110  27.6721  0.98533110  5398
Epoch (UTC): 15 January 2021 15:01:28
Eccentricity: 0.0010885
inclination: 11.9781°
perigee height: 36234 km
apogee height: 36327 km
right ascension of ascending node: 28.4973°
argument of perigee: 332.3110°
revolutions per day: 0.98533110
mean anomaly at epoch: 27.6721°
orbit number at epoch: 539

The dashed part of the orbit path shows where the satellite is in the earth's shadow,  

DLR